TAY6PA LKPR-EDDM

Flight info

Callsign TAY6PA
Flight time 0h 32m
Altitude 24000
Route DOBEN DCT LULAR DCT DM438
Aircraft B738/M-SDE2E3FGHIRWXY/LB1

Departure

Time 2026-05-06 18:00
Airport Václav Havel Airport Prague (LKPR)

Arrival

Time 2026-05-06 18:32
Airport Munich Airport (EDDM)
Time Latitude Longitude Altitude Speed Heading
2026-05-06 17:31 50.11301 14.27595 1168 ft 0 kts 155°
2026-05-06 17:44 50.11302 14.27594 1173 ft 2 kts 155°
2026-05-06 17:44 50.11312 14.27587 1168 ft 2 kts 155°
2026-05-06 17:44 50.11327 14.27576 1170 ft 2 kts 155°
2026-05-06 17:45 50.11342 14.27566 1170 ft 2 kts 156°
2026-05-06 17:45 50.11357 14.27556 1169 ft 2 kts 176°
2026-05-06 17:45 50.11372 14.27565 1172 ft 2 kts 234°
2026-05-06 17:45 50.11380 14.27587 1169 ft 2 kts 244°
2026-05-06 17:46 50.11386 14.27605 1171 ft 1 kts 244°
2026-05-06 17:49 50.11381 14.27590 1169 ft 8 kts 242°
2026-05-06 17:50 50.11345 14.27471 1170 ft 12 kts 245°
2026-05-06 17:50 50.11297 14.27312 1171 ft 21 kts 245°
2026-05-06 17:50 50.11234 14.27101 1171 ft 21 kts 245°
2026-05-06 17:50 50.11172 14.26896 1171 ft 21 kts 245°
2026-05-06 17:51 50.11113 14.26694 1172 ft 20 kts 245°
2026-05-06 17:51 50.11043 14.26512 1171 ft 19 kts 221°
2026-05-06 17:51 50.10934 14.26394 1172 ft 19 kts 214°
2026-05-06 17:51 50.10827 14.26280 1170 ft 18 kts 214°
2026-05-06 17:52 50.10725 14.26172 1171 ft 18 kts 214°
2026-05-06 17:52 50.10625 14.26068 1171 ft 17 kts 211°
2026-05-06 17:52 50.10545 14.25987 1172 ft 9 kts 212°
2026-05-06 17:52 50.10485 14.26008 1172 ft 12 kts 133°
2026-05-06 17:53 50.10401 14.26181 1173 ft 25 kts 126°
2026-05-06 17:53 50.10299 14.26390 1174 ft 23 kts 127°
2026-05-06 17:53 50.10204 14.26588 1174 ft 22 kts 127°
2026-05-06 17:53 50.10093 14.26817 1185 ft 30 kts 127°
2026-05-06 17:54 50.09972 14.27068 1197 ft 28 kts 127°
2026-05-06 17:54 50.09857 14.27302 1201 ft 26 kts 130°
2026-05-06 17:54 50.09732 14.27497 1205 ft 25 kts 135°
2026-05-06 17:54 50.09626 14.27661 1209 ft 17 kts 135°
2026-05-06 17:55 50.09545 14.27785 1211 ft 16 kts 135°
2026-05-06 17:55 50.09466 14.27906 1214 ft 17 kts 135°
2026-05-06 17:55 50.09373 14.28049 1214 ft 20 kts 135°
2026-05-06 17:55 50.09280 14.28192 1213 ft 15 kts 135°
2026-05-06 17:56 50.09224 14.28268 1211 ft 0 kts 149°
2026-05-06 17:56 50.09223 14.28269 1211 ft 1 kts 149°
2026-05-06 17:56 50.09177 14.28284 1210 ft 8 kts 185°
2026-05-06 17:57 50.09151 14.28269 1210 ft 0 kts 210°
2026-05-06 17:59 50.09145 14.28263 1210 ft 7 kts 215°
2026-05-06 17:59 50.09097 14.28087 1208 ft 30 kts 282°
2026-05-06 17:59 50.09330 14.27576 1210 ft 95 kts 307°
2026-05-06 17:59 50.09863 14.26480 1206 ft 159 kts 309°
2026-05-06 18:00 50.10597 14.25005 1728 ft 175 kts 309°
2026-05-06 18:00 50.11332 14.23487 2616 ft 179 kts 307°
2026-05-06 18:00 50.12101 14.21864 3265 ft 190 kts 306°
2026-05-06 18:00 50.12909 14.20166 3859 ft 201 kts 305°
2026-05-06 18:01 50.13764 14.18379 4377 ft 208 kts 305°
2026-05-06 18:01 50.14644 14.16548 4900 ft 213 kts 305°
2026-05-06 18:01 50.15546 14.14674 5289 ft 225 kts 304°
2026-05-06 18:01 50.16511 14.12666 5666 ft 238 kts 304°
2026-05-06 18:02 50.17545 14.10516 6044 ft 257 kts 304°
2026-05-06 18:02 50.18342 14.07956 6428 ft 269 kts 277°
2026-05-06 18:02 50.18192 14.05036 6805 ft 270 kts 245°
2026-05-06 18:02 50.17078 14.02780 7221 ft 264 kts 217°
2026-05-06 18:03 50.15618 14.01118 7993 ft 264 kts 216°
2026-05-06 18:03 50.14118 13.99418 8812 ft 267 kts 216°
2026-05-06 18:03 50.12525 13.97915 9624 ft 271 kts 201°
2026-05-06 18:03 50.10658 13.97389 10329 ft 279 kts 184°
2026-05-06 18:04 50.09330 13.97410 10497 ft 295 kts 181°
2026-05-06 18:04 50.06463 13.97588 10786 ft 324 kts 180°
2026-05-06 18:04 50.04168 13.97728 11339 ft 333 kts 180°
2026-05-06 18:04 50.02627 13.97810 11824 ft 335 kts 181°
2026-05-06 18:05 50.00295 13.97922 12630 ft 336 kts 182°
2026-05-06 18:05 49.97989 13.97393 13373 ft 336 kts 202°
2026-05-06 18:05 49.95948 13.95630 14103 ft 337 kts 219°
2026-05-06 18:05 49.93890 13.92008 15109 ft 339 kts 233°
2026-05-06 18:06 49.92970 13.90032 15598 ft 342 kts 234°
2026-05-06 18:06 49.91590 13.86990 16331 ft 345 kts 234°
2026-05-06 18:06 49.90196 13.83911 17061 ft 349 kts 234°
2026-05-06 18:06 49.88786 13.80821 17771 ft 352 kts 233°
2026-05-06 18:07 49.87362 13.77730 18439 ft 355 kts 233°
2026-05-06 18:07 49.85918 13.74617 19093 ft 357 kts 233°
2026-05-06 18:07 49.84369 13.71595 19732 ft 359 kts 225°
2026-05-06 18:07 49.82487 13.69052 20385 ft 360 kts 217°
2026-05-06 18:08 49.80466 13.66740 21081 ft 360 kts 216°
2026-05-06 18:08 49.78447 13.64468 21922 ft 356 kts 216°
2026-05-06 18:08 49.76476 13.62251 22803 ft 352 kts 216°
2026-05-06 18:08 49.74488 13.60008 23438 ft 353 kts 216°
2026-05-06 18:09 49.72509 13.57766 23708 ft 352 kts 216°
2026-05-06 18:09 49.70522 13.55510 23725 ft 352 kts 216°
2026-05-06 18:09 49.68573 13.53293 23748 ft 353 kts 216°
2026-05-06 18:09 49.66585 13.51032 23746 ft 354 kts 216°
2026-05-06 18:10 49.64593 13.48766 23746 ft 355 kts 216°
2026-05-06 18:10 49.62594 13.46494 23749 ft 355 kts 216°
2026-05-06 18:10 49.60620 13.44252 23749 ft 356 kts 216°
2026-05-06 18:10 49.58622 13.41986 23750 ft 356 kts 216°
2026-05-06 18:11 49.56648 13.39747 23732 ft 355 kts 216°
2026-05-06 18:11 49.54647 13.37482 23747 ft 355 kts 216°
2026-05-06 18:11 49.52653 13.35227 23746 ft 355 kts 216°
2026-05-06 18:11 49.50656 13.32971 23748 ft 355 kts 216°
2026-05-06 18:12 49.48671 13.30730 23740 ft 354 kts 216°
2026-05-06 18:12 49.46683 13.28489 23745 ft 354 kts 216°
2026-05-06 18:12 49.44695 13.26249 23730 ft 354 kts 216°
2026-05-06 18:12 49.42735 13.24043 23737 ft 353 kts 216°
2026-05-06 18:13 49.40747 13.21807 23744 ft 353 kts 216°
2026-05-06 18:13 49.38756 13.19569 23749 ft 358 kts 216°
2026-05-06 18:13 49.36703 13.17266 23756 ft 372 kts 216°
2026-05-06 18:13 49.34578 13.14885 23750 ft 384 kts 216°
2026-05-06 18:14 49.32317 13.12578 23734 ft 392 kts 210°
2026-05-06 18:14 49.29952 13.10590 23720 ft 391 kts 213°
2026-05-06 18:14 49.27775 13.08098 23743 ft 389 kts 218°
2026-05-06 18:14 49.25651 13.05497 23736 ft 388 kts 219°
2026-05-06 18:15 49.23570 13.02937 23563 ft 391 kts 219°
2026-05-06 18:15 49.21443 13.00334 23114 ft 391 kts 218°
2026-05-06 18:15 49.19313 12.97747 22630 ft 386 kts 218°
2026-05-06 18:15 49.17219 12.95224 22186 ft 380 kts 218°
2026-05-06 18:16 49.15135 12.92723 21729 ft 379 kts 218°
2026-05-06 18:16 49.13092 12.90282 21279 ft 378 kts 218°
2026-05-06 18:16 49.11020 12.87809 20849 ft 376 kts 218°
2026-05-06 18:16 49.08965 12.85362 20413 ft 375 kts 218°
2026-05-06 18:17 49.06898 12.82904 19988 ft 374 kts 218°
2026-05-06 18:17 49.04846 12.80465 19566 ft 373 kts 218°
2026-05-06 18:17 49.02820 12.78061 19159 ft 372 kts 218°
2026-05-06 18:17 49.00777 12.75638 18757 ft 370 kts 218°
2026-05-06 18:18 48.98736 12.73221 18350 ft 369 kts 218°
2026-05-06 18:18 48.96709 12.70823 17946 ft 368 kts 218°
2026-05-06 18:18 48.94696 12.68444 17488 ft 366 kts 218°
2026-05-06 18:18 48.92707 12.66095 17035 ft 364 kts 218°
2026-05-06 18:19 48.90698 12.63726 16591 ft 362 kts 218°
2026-05-06 18:19 48.88718 12.61393 16154 ft 354 kts 218°
2026-05-06 18:19 48.86803 12.59139 15700 ft 342 kts 218°
2026-05-06 18:19 48.84947 12.56957 15212 ft 333 kts 218°
2026-05-06 18:20 48.83142 12.54836 14734 ft 330 kts 218°
2026-05-06 18:20 48.81295 12.52739 14252 ft 331 kts 212°
2026-05-06 18:20 48.79250 12.51127 13784 ft 332 kts 206°
2026-05-06 18:20 48.77138 12.49675 13288 ft 332 kts 205°
2026-05-06 18:21 48.75026 12.48256 12760 ft 331 kts 204°
2026-05-06 18:21 48.72948 12.46869 12253 ft 330 kts 204°
2026-05-06 18:21 48.70838 12.45463 11735 ft 329 kts 204°
2026-05-06 18:21 48.68746 12.44059 11230 ft 324 kts 205°
2026-05-06 18:22 48.66745 12.42678 10743 ft 315 kts 205°
2026-05-06 18:22 48.64781 12.41311 10344 ft 305 kts 205°
2026-05-06 18:22 48.62865 12.39978 9983 ft 300 kts 205°
2026-05-06 18:22 48.60957 12.38654 9628 ft 304 kts 205°
2026-05-06 18:23 48.59016 12.37310 9244 ft 307 kts 205°
2026-05-06 18:23 48.57106 12.35991 8855 ft 304 kts 205°
2026-05-06 18:23 48.55177 12.34661 8473 ft 303 kts 205°
2026-05-06 18:23 48.53256 12.33340 8129 ft 301 kts 205°
2026-05-06 18:24 48.51350 12.32029 7802 ft 299 kts 205°
2026-05-06 18:24 48.49487 12.30749 7481 ft 295 kts 205°
2026-05-06 18:24 48.47810 12.29111 7144 ft 282 kts 226°
2026-05-06 18:24 48.46597 12.26875 6866 ft 269 kts 232°
2026-05-06 18:25 48.45468 12.24684 6567 ft 259 kts 232°
2026-05-06 18:25 48.44391 12.22596 6270 ft 250 kts 232°
2026-05-06 18:25 48.43334 12.20556 5978 ft 242 kts 232°
2026-05-06 18:25 48.42306 12.18584 5662 ft 235 kts 233°
2026-05-06 18:26 48.41303 12.16663 5354 ft 230 kts 233°
2026-05-06 18:26 48.40320 12.14788 5080 ft 228 kts 233°
2026-05-06 18:26 48.39351 12.12944 4827 ft 228 kts 234°
2026-05-06 18:26 48.38367 12.11074 4589 ft 227 kts 234°
2026-05-06 18:27 48.37390 12.09219 4319 ft 222 kts 234°
2026-05-06 18:27 48.36560 12.07346 4102 ft 207 kts 254°
2026-05-06 18:27 48.36436 12.05322 4060 ft 187 kts 266°
2026-05-06 18:27 48.36296 12.03449 4056 ft 176 kts 263°
2026-05-06 18:28 48.36144 12.01658 4058 ft 172 kts 263°
2026-05-06 18:28 48.35999 11.99880 4022 ft 170 kts 264°
2026-05-06 18:28 48.35859 11.98116 3853 ft 168 kts 264°
2026-05-06 18:28 48.35724 11.96414 3640 ft 157 kts 264°
2026-05-06 18:29 48.35603 11.94870 3430 ft 144 kts 264°
2026-05-06 18:29 48.35491 11.93447 3245 ft 131 kts 264°
2026-05-06 18:29 48.35386 11.92110 3091 ft 129 kts 264°
2026-05-06 18:29 48.35280 11.90749 2913 ft 133 kts 264°
2026-05-06 18:30 48.35172 11.89369 2739 ft 133 kts 264°
2026-05-06 18:30 48.35065 11.88008 2576 ft 134 kts 264°
2026-05-06 18:30 48.34961 11.86595 2363 ft 133 kts 263°
2026-05-06 18:30 48.34847 11.85211 2179 ft 135 kts 262°
2026-05-06 18:31 48.34743 11.83787 1998 ft 141 kts 263°
2026-05-06 18:31 48.34621 11.82298 1784 ft 143 kts 262°
2026-05-06 18:31 48.34508 11.80819 1572 ft 140 kts 263°
2026-05-06 18:31 48.34401 11.79431 1485 ft 124 kts 264°
2026-05-06 18:32 48.34321 11.78395 1477 ft 60 kts 264°
2026-05-06 18:32 48.34331 11.77949 1480 ft 40 kts 288°
2026-05-06 18:32 48.34417 11.77644 1478 ft 20 kts 294°
2026-05-06 18:32 48.34452 11.77525 1479 ft 3 kts 294°
2026-05-06 18:33 48.34460 11.77499 1479 ft 3 kts 297°
2026-05-06 18:33 48.34510 11.77443 1481 ft 14 kts 344°
2026-05-06 18:33 48.34613 11.77423 1481 ft 15 kts 353°
2026-05-06 18:33 48.34686 11.77411 1476 ft 3 kts 353°
2026-05-06 18:34 48.34690 11.77410 1478 ft 1 kts 353°
2026-05-06 18:34 48.34719 11.77405 1479 ft 6 kts 353°
2026-05-06 18:34 48.34751 11.77399 1475 ft 3 kts 354°
2026-05-06 18:34 48.34770 11.77393 1482 ft 3 kts 340°
2026-05-06 18:35 48.34783 11.77378 1474 ft 0 kts 318°
2026-05-06 18:36 48.34793 11.77354 1482 ft 10 kts 291°
2026-05-06 18:37 48.34790 11.77228 1482 ft 12 kts 263°
2026-05-06 18:37 48.34783 11.77143 1484 ft 11 kts 263°
2026-05-06 18:37 48.34850 11.77070 1479 ft 9 kts 353°
2026-05-06 18:37 48.34865 11.77068 1474 ft 0 kts 353°